Regional Weather Roundup
Issued by NWS Albany, NY

Home | Current Version | Previous Version | Text Only | Print | Product List | Glossary On
Versions: 1 2 3 4 5 6 7 8 9 10 11 12 13 14 15 16 17 18 19 20 21 22 23 24 25 26 27
000
ASUS41 KALY 282310
RWRALY

NEW YORK STATE HOURLY WEATHER ROUNDUP
NATIONAL WEATHER SERVICE ALBANY NY
700 PM EDT WED SEP 28 2016

NOTE: "FAIR" INDICATES FEW OR NO CLOUDS BELOW 12,000 FEET WITH NO
SIGNIFICANT WEATHER AND/OR NO OBSTRUCTIONS TO VISIBILITY.

NYZ032-033-038>043-046>054-057>066-NYZ062>081-082-084-290000-
EAST


CITY           SKY/WX    TMP DP  RH WIND       PRES   REMARKS
ALBANY         PTCLDY    61  48  62 E6        30.24R
GLENS FALLS    CLEAR     60  48  64 E6        30.25R
POUGHKEEPSIE   CLOUDY    60  50  69 NE10      30.21R
NEWBURGH       CLOUDY    61  54  77 E17G23    30.22R
MONTGOMERY     CLOUDY    61  51  70 E9        30.21R
WHITE PLAINS   MOCLDY    60  52  74 NE10G22   30.20R
ISLIP          DRIZZLE   59  57  93 NE14      30.19R
NEW YORK CITY  CLOUDY    64  56  75 NE22G29   30.18R
CENTRAL PARK   CLOUDY    62  53  72 E10G20    30.21R
$$

NYZ005>009-017-018-044>046-055-056-290000-
CENTRAL


CITY           SKY/WX    TMP DP  RH WIND       PRES   REMARKS
FULTON         CLEAR     64  51  62 VRB3      30.15R
SYRACUSE       PTCLDY    62  50  64 E9        30.15R
ROME           CLEAR     62  52  69 E8        30.20R
ELMIRA         MOCLDY    65  49  56 E10       30.12R
BINGHAMTON     MOCLDY    58  49  72 SE9       30.16S
MONTICELLO     CLOUDY    57  52  82 E13G18    30.21R
$$

NYZ026>034-041>043-087-290000-
NORTH


CITY           SKY/WX    TMP DP  RH WIND       PRES   REMARKS
WATERTOWN      CLEAR     60  50  69 NE5       30.17R
FORT DRUM      NOT AVBL
OGDENSBURG     FAIR      64  56  75 NE10G17   30.21R
MASSENA        CLEAR     63  54  72 NE14      30.26R
SARANAC LAKE   CLEAR     58  46  64 E6        30.25R
PLATTSBURGH    PTCLDY    61  55  81 CALM      30.25R
$$

NYZ001>004-010>016-019>021-085-290000-
WEST


CITY           SKY/WX    TMP DP  RH WIND       PRES   REMARKS
NIAGARA FALLS  MOCLDY    71  53  52 E13       30.05R
BUFFALO        MOCLDY    71  45  39 E8        30.05R
DUNKIRK        PTCLDY    63  53  70 E7        30.02R
JAMESTOWN      CLEAR     63  45  51 E8        30.05R
WELLSVILLE     CLOUDY    64  47  53 SE9G18    30.12R
ROCHESTER      MOCLDY    69  55  60 E15       30.10R
PENN YAN       CLEAR     65  50  58 VRB7      30.13R
$$

             KEY
       WCI = WIND CHILL INDEX
       VSB = VISIBILITY
       HX  = HEAT INDEX
$$




USA.gov is the U.S. government's official web portal to all federal, state and local government web resources and services.